Regional Weather Roundup
Issued by NWS Charleston, SC

Home | Current Version | Previous Version | Text Only | Print | Product List | Glossary On
Versions: 1 2 3 4 5 6 7 8 9 10 11 12 13 14 15 16 17 18 19 20 21 22 23 24 25 26 27 28 29 30 31 32 33 34 35 36 37 38 39 40 41 42 43 44 45 46 47 48 49 50
000
ASUS42 KCHS 042327
RWRCHS

REGIONAL WEATHER ROUNDUP
NATIONAL WEATHER SERVICE CHARLESTON SC
700 PM EDT MON MAY 04 2015

NOTE: "FAIR" INDICATES FEW OR NO CLOUDS BELOW 12,000 FEET WITH NO
SIGNIFICANT WEATHER AND/OR OBSTRUCTIONS TO VISIBILITY.

NOT ALL STATIONS ARE QUALITY CONTROLLED BY THE NATIONAL
WEATHER SERVICE. USE DATA WITH CAUTION...ESPECIALLY
DEWPOINT OBSERVATIONS.

SCZ027-030-031-034>040-042>050-050000-
...SOUTHEAST SOUTH CAROLINA...

CITY           SKY/WX    TMP DP  RH WIND       PRES   REMARKS
N CHARLESTON   MOSUNNY   74  53  48 SE12      30.29S
WATERFRONT PRK   N/A     72 N/A N/A E12         N/A
MOUNT PLEASANT FAIR      73  55  53 MISG      30.30R
PINOPOLIS      NOT AVBL
MONCKS CORNER  CLOUDY    75  54  46 S5        30.29R
SUMMERVILLE    FAIR      75  54  46 SE6       30.29S
BEAUFORT MCAS  SUNNY     73  57  57 E9        30.28S
BEAUFORT ARPT  FAIR      73  57  56 E7        30.28S
HILTON HEAD IS SUNNY     73  63  68 E5        30.29S
WALTERBORO     CLEAR     72  52  49 S8        30.29S
ALLENDALE      CLOUDY    73  55  53 SE6       30.27S

...SOUTHERN MIDLANDS AND PEE DEE...

CITY           SKY/WX    TMP DP  RH WIND       PRES   REMARKS
GEORGETOWN     NOT AVBL
KINGSTREE      NOT AVBL
ORANGEBURG     SUNNY     75  54  47 S13       30.27S
BARNWELL       FAIR      73  55  53 SE8       30.28R
AIKEN          FAIR      73  52  46 SE12G18   30.29S
MANNING        FAIR      73  52  46 CALM      30.28S
COLUMBIA       MOSUNNY   80  53  39 S12       30.24S
SUMTER         SUNNY     77  56  47 S15       30.25R
FLORENCE       SUNNY     78  53  41 S10       30.26S
MYRTLE BEACH   SUNNY     75  57  53 S9        30.32S
N MYRTLE BEACH SUNNY     73  60  63 S7        30.30F

$$

GAZ063-065-086>088-099>101-113>116-118-119-134>141-150-050000-
...SOUTHEAST GEORGIA...

CITY           SKY/WX    TMP DP  RH WIND       PRES   REMARKS
SAVANNAH ARPT  MOSUNNY   74  53  48 E13       30.27F
HUNTER AAF     SUNNY     74  55  51 E10       30.25S
FORT STEWART   SUNNY     75  55  50 E10       30.25S
STATESBORO       N/A     75  58  55 SE5       30.27S
SYLVANIA       PTCLDY    74  57  55 SE5       30.28S
CLAXTON        FAIR      73  57  56 SE7       30.26S

...CSRA...CENTRAL AND FAR SOUTHEAST GEORGIA...

CITY           SKY/WX    TMP DP  RH WIND       PRES   REMARKS
THOMSON        SUNNY     79  58  48 CALM      30.29S
AUGUSTA-BUSH   FAIR      75  57  53 SE10      30.24S
AUGUSTA-DANIEL FAIR      81  48  31 SE8       30.25S
SWAINSBORO     NOT AVBL
VIDALIA        SUNNY     75  59  57 SE6       30.25S
EASTMAN        MOCLDY    78  59  51 SE8       30.26S
HAZLEHURST     MOCLDY    77  53  43 E8        30.23S
ALMA           SUNNY     77  52  41 E9        30.24S
WAYCROSS       SUNNY     79  57  46 E9        30.24R
JESUP          FAIR      77  57  50 SE8       30.26S
BAXLEY         FAIR      77  54  44 E6        30.24S
BRUNSWICK      SUNNY     73  55  53 E12       30.26S
SAINT SIMONS   SUNNY     74  58  57 E13       30.25F

$$

SCZ027-028-034-036>038-045-046-048>050-GAZ119-141-050000-
...LAKE AND SUPPLEMENTAL COASTAL OBSERVATIONS...

STATION/POSITION TIME  TEMP    WIND        PRES    WAVE   SWELL
                       AIR SEA DIR/SP/G            HT/PER HT/PER/DIR
                 (UTC) (F)     (DEG/KT/KT) (MB)    (FT/S) (FT/S/D)
UPR LAKE MARION  NOT AVBL
WINYAH BAY       2245   74     130/ 10     1025.0S
LAKE MURRAY      2200   84     190/  2/  3 1023.7S
ACE BASIN NERRS  NOT AVBL
FORT PULASKI     2300   72 71   70/ 11/ 12 1025.6F
SAPELO ISLAND    2300   74      70/  7     1024.0F

$$

ANZ835-935-AMZ111-154-330-350-352-354-370-450-454-472-050000-
...C-MAN AND BUOY OBSERVATIONS...

STATION/POSITION TIME  TEMP    WIND        PRES    WAVE   SWELL
                       AIR SEA DIR/SP/G            HT/PER HT/PER/DIR
                 (UTC) (F)     (DEG/KT/KT) (MB)    (FT/S) (FT/S/D)
BUOY 41004       2250   74 74  100/ 14/ 17 1025.0F   3/10   2/10
BUOY 41008       2250   72 71   90/  8/ 10 1024.7F   3/ 5   3/110/ 5
FOLLY BEACH CMAN 2300   72     100/  8/ 10 1025.8F
CAPERS NEARSHORE 2208   72     120/ 12/ 14 1025.8S
FRIPP NEARSHORE  2200   73      90/ 12/ 12 1024.6S


STATION/POSITION TIME  TEMP    WIND        PRES    WAVE   SWELL
                       AIR SEA DIR/SP/G            HT/PER HT/PER/DIR
                 (UTC) (F)     (DEG/KT/KT) (MB)    (FT/S) (FT/S/D)
5E ST. MARYS GA  2221      73                N/A     3/ 5   2/ 90/12
FRYING PAN BUOY  2250   75 73  140/ 10/ 12 1027.2F   3/10   2/ 70/10
BUOY 41025       2250   75 78  210/ 12/ 14 1026.6F   4/11   3/ 70/11
CAPE LOOKOUT NC  2300   70     170/  6/  6 1026.3F
BUOY 41002       2250   69 70   70/ 16/ 17 1026.3F   5/11   3/ 20/11
BUOY 41010       2220   74 78   70/ 16/ 19 1022.8S
ST AUGUSTINE FL  2300   72 72   90/  9/ 10 1024.4F


$$


USA.gov is the U.S. government's official web portal to all federal, state and local government web resources and services.